Weather History for KINK - December, 2012

Change the Weather History Date:

Tuesday, December 25, 2012

  Actual Average Record
Temperature  
Mean Temperature 40 °F -  
Max Temperature 55 °F 55 °F 80 °F (1942)
Min Temperature 23 °F 26 °F 7 °F (1983)
Degree Days  
Heating Degree Days 26    
Moisture  
Dew Point 18 °F    
Average Humidity 43    
Maximum Humidity 59    
Minimum Humidity 29    
Precipitation  
Precipitation 0.00 in - - ()
Sea Level Pressure  
Sea Level Pressure 29.96 in    
Wind  
Wind Speed 16 mph (NNW)    
Max Wind Speed 28 mph    
Max Gust Speed 36 mph    
Visibility 10 miles    
Events      
Averages and records for this station are not official NWS values.
T = Trace of Precipitation, MM = Missing Value Source: NWS Daily Summary

Daily Weather History Graph

Daily Weather History Graph

Search for Another Location

Airport or City:

Trip Planner

Search our weather history database for the weather conditions in past years. The results will help you decide how hot, cold, wet, or windy it might be!

Date:

Astronomy

Dec. 25, 2012 Rise Set
Actual Time 7:50 AM CST 5:55 PM CST
Civil Twilight 7:23 AM CST 6:22 PM CST
Nautical Twilight 6:53 AM CST 6:53 PM CST
Astronomical Twilight 6:23 AM CST 7:22 PM CST
Moon 4:03 PM CST (12/25) 5:27 AM CST (12/25)
Length of Visible Light 10h 58m
Length of Day
10h 04m
Waxing Gibbous, 94% of the Moon is Illuminated
Dec 25
Waxing Gibbous
Dec 28
Full
Jan 4
Last Quarter
Jan 11
New
Jan 18
First Quarter

Hourly Weather History & Observations

Time (CST) Temp. Windchill Dew Point Humidity Pressure Visibility Wind Dir Wind Speed Gust Speed Precip Events Conditions
12:53 AM 42.1 °F 37.1 °F 21.0 °F 43% 29.60 in 10.0 mi SW 8.1 mph - N/A   Clear
1:53 AM 55.0 °F - 27.0 °F 34% 29.58 in 10.0 mi WNW 21.9 mph - N/A   Overcast
2:53 AM 53.1 °F - 32.0 °F 45% 29.60 in 10.0 mi West 19.6 mph 27.6 mph 0.00 in   Overcast
3:53 AM 48.9 °F - 32.0 °F 52% 29.62 in 10.0 mi West 16.1 mph - N/A   Clear
4:53 AM 46.9 °F - 27.0 °F 46% 29.65 in 10.0 mi West 16.1 mph - N/A   Clear
5:53 AM 46.9 °F - 23.0 °F 39% 29.67 in 10.0 mi West 18.4 mph - N/A   Clear
6:53 AM 44.1 °F 37.7 °F 21.9 °F 42% 29.71 in 10.0 mi WNW 12.7 mph - N/A   Clear
7:53 AM 42.1 °F 35.2 °F 19.9 °F 41% 29.77 in 10.0 mi West 12.7 mph - N/A   Partly Cloudy
8:53 AM 46.9 °F - 21.0 °F 36% 29.84 in 10.0 mi NNW 27.6 mph 35.7 mph N/A   Clear
9:53 AM 35.1 °F 23.3 °F 21.9 °F 59% 29.96 in 7.0 mi North 23.0 mph 34.5 mph N/A   Clear
10:53 AM 37.0 °F 26.4 °F 19.0 °F 48% 30.04 in 8.0 mi North 20.7 mph 28.8 mph N/A   Clear
11:53 AM 39.2 °F 28.7 °F 17.6 °F 42% 30.09 in 10.0 mi North 23.0 mph 32.2 mph N/A   Clear
12:53 PM 39.9 °F 29.2 °F 16.0 °F 38% 30.08 in 10.0 mi North 25.3 mph 32.2 mph N/A   Clear
1:53 PM 42.1 °F 32.8 °F 12.9 °F 31% 30.05 in 10.0 mi North 21.9 mph 32.2 mph N/A   Clear
2:53 PM 42.1 °F 33.6 °F 12.0 °F 29% 30.06 in 10.0 mi North 18.4 mph 32.2 mph N/A   Clear
3:53 PM 39.0 °F 28.5 °F 10.9 °F 32% 30.08 in 10.0 mi North 23.0 mph 31.1 mph N/A   Clear
4:53 PM 37.0 °F 25.6 °F 10.9 °F 34% 30.10 in 10.0 mi North 24.2 mph 33.4 mph N/A   Clear
5:53 PM 34.0 °F 22.4 °F 12.0 °F 40% 30.12 in 10.0 mi North 20.7 mph - N/A   Clear
6:53 PM 32.0 °F 22.5 °F 12.0 °F 44% 30.17 in 10.0 mi North 12.7 mph - N/A   Clear
7:53 PM 30.0 °F 22.4 °F 12.0 °F 47% 30.20 in 10.0 mi North 8.1 mph - N/A   Clear
8:53 PM 28.0 °F 20.8 °F 12.0 °F 51% 30.21 in 10.0 mi North 6.9 mph - N/A   Clear
9:53 PM 26.1 °F 15.0 °F 10.9 °F 53% 30.25 in 10.0 mi North 12.7 mph - N/A   Clear
10:53 PM 24.1 °F 13.1 °F 10.9 °F 57% 30.27 in 10.0 mi NNE 11.5 mph - N/A   Clear
11:53 PM 23.0 °F 17.0 °F 10.0 °F 58% 30.27 in 10.0 mi NNW 4.6 mph - N/A   Clear